sat.trackr.live / text

‹ back to catalog

STARLINK-31024

NORAD 58786 · 2024-011X

PAYLOAD ACTIVE UNKNOWN

§ Identity

Operator
Country
US
Launch date
2024-01-14
Launch site
AFWTR
Launch vehicle
Mass (kg)
RCS (m²)

Purposes: comms

External: N2YO · Heavens-Above · Gunter

§ Orbital elements

Epoch: 2026-05-25T00:17:58.296192Z

Period
94.11 min
Inclination
53.1617°
Eccentricity
0.0001172
Mean motion
15.30192992 rev/d
Perigee alt
474.4 km
Apogee alt
476.0 km
Semi-major
6,853.4 km
B*
3.6686e-5
RAAN
17.1895°
Arg perigee
92.5205°
Mean anomaly
267.5930°
Rev number
13,198

§ Raw data

STARLINK-310241 58786U 24011X   26145.01248028  .00000727  00000+0  36686-4 0  99932 58786  53.1617  17.1895 0001172  92.5205 267.5930 15.30192992131989

JSON: /api/v1/satellites/58786 · /tle

For live sub-satellite position, see the globe view (requires WebGL).

§ Visibility from observer

Set your observer location to see the next 7 days of passes ≥ 10°. The values pass through the URL so the page stays shareable.

No JS? Fill the form by hand. The geolocation button needs JavaScript.